Regional Weather Roundup
Issued by NWS Green Bay, WI

Home | Current Version | Previous Version | Text Only | Print | Product List | Glossary On
Versions: 1 2 3 4 5 6 7 8 9 10 11 12 13 14 15 16 17 18 19 20 21 22 23 24 25 26 27 28 29 30 31 32 33 34 35 36 37 38 39 40 41 42 43 44 45 46 47 48 49 50
000
ASUS43 KGRB 100859
RWRGRB

NORTH-CENTRAL AND NORTHEAST WISCONSIN REGIONAL WEATHER ROUNDUP
NATIONAL WEATHER SERVICE GREEN BAY WI
400 AM CDT THU JUL 10 2014

WIZ005-009-010>012-018-019-101000-
NORTH CENTRAL WISCONSIN

CITY           SKY/WX    TMP DP  RH WIND       PRES   REMARKS
IRONWOOD       NOT AVBL
MANITOWISH WTR NOT AVBL
ARBOR VITAE    NOT AVBL
EAGLE RIVER    NOT AVBL
LAND O LAKES   NOT AVBL
RHINELANDER    CLEAR     42  42 100 CALM      30.11S FOG
PHILLIPS       MOCLDY    48  46  95 CALM      30.10R
ANTIGO         NOT AVBL
TOMAHAWK       NOT AVBL
MERRILL        NOT AVBL
$$

WIZ013-073-101000-
NORTHEAST WISCONSIN

CITY           SKY/WX    TMP DP  RH WIND       PRES   REMARKS
IRON MOUNTAIN  FOG       42  41  96 CALM      30.10R VSB 1/2
MARINETTE      CLEAR     48  46  93 CALM      30.10R
$$

WIZ017-030-035>037-045-101000-
CENTRAL WISCONSIN

CITY           SKY/WX    TMP DP  RH WIND       PRES   REMARKS
MEDFORD        NOT AVBL
WAUSAU         CLEAR     50  49  96 E3        30.10R
MOSINEE        CLEAR     50  50 100 CALM      30.12R
MARSHFIELD     CLEAR     53  50  89 CALM      30.10R
WISC RAPIDS    CLEAR     51  49  92 CALM      30.12R
STEVENS POINT  NOT AVBL
WAUPACA        CLEAR     51  49  94 CALM      30.12R
SHAWANO        CLEAR     51  50  95 CALM      30.11S FOG
CLINTONVILLE   CLEAR     50  46  87 CALM      30.11R
$$

WIZ038-039-048-051-101000-
FOX VALLEY

CITY           SKY/WX    TMP DP  RH WIND       PRES   REMARKS
NWS GREEN BAY  CLEAR     52  51  97 CALM      30.11R
APPLETON       NOT AVBL
OSHKOSH        CLEAR     54  51  90 S3        30.10S
FOND DU LAC    CLEAR     52  50  93 CALM      30.11S
$$

WIZ022-050-052-101000-
EAST CENTRAL WISCONSIN

CITY           SKY/WX    TMP DP  RH WIND       PRES   REMARKS
STURGEON BAY   CLEAR     52  48  87 S3        30.11S
MANITOWOC      NOT AVBL
SHEBOYGAN      FOG       53  53 100 SW3       30.12R VSB 1/4
$$

LMZ563-521-522-541>543-101000-
LAKESHORE

STATION/POSITION TIME  TEMP    WIND        PRES    VSBY  WAVE
                       AIR SEA DIR/SP/G                  HT/PER
                 (UTC) (F)     (DEG/KT/KT) (MB)    (MI)  (FT/S)
SHEBOYGAN LKSHOR 0800   59     210/  4/  5 1019.8R
KEWAUNEE LKSHORE 0800   52     290/  3/  3 1020.0R
NORTHPORT PIER   0800   57     200/  4/  6 1019.6R
N MID LAKE BUOY  0800   55 53  190/  6/  6 1018.8R         0
MENOMINEE LKSHOR 0800   59     200/  2/  3 1019.8R
$$


USA.gov is the U.S. government's official web portal to all federal, state and local government web resources and services.